����������;��������(kVARh)
2018-03-26 00:00;2,8
2018-03-26 00:15;1,15
2018-03-26 00:30;1,45
2018-03-26 00:45;1,8
2018-03-26 01:00;0,8
2018-03-26 01:15;1,65
2018-03-26 01:30;1,2
2018-03-26 01:45;0,35
2018-03-26 02:00;0,15
2018-03-26 02:15;0,3
2018-03-26 02:30;0,4
2018-03-26 02:45;0,85
2018-03-26 03:00;0,7
2018-03-26 03:15;0,8
2018-03-26 03:30;1,75
2018-03-26 03:45;1,05
2018-03-26 04:00;1,95
2018-03-26 04:15;2,7
2018-03-26 04:30;1
2018-03-26 04:45;0,8
2018-03-26 05:00;2,3
2018-03-26 05:15;2,5
2018-03-26 05:30;1,4
2018-03-26 05:45;0,6
2018-03-26 06:00;0,4
2018-03-26 06:15;0,2
2018-03-26 06:30;0,3
2018-03-26 06:45;0
2018-03-26 07:00;0
2018-03-26 07:15;0,3
2018-03-26 07:30;20,5
2018-03-26 07:45;12,4
2018-03-26 08:00;6,05
2018-03-26 08:15;7,25
2018-03-26 08:30;7,7
2018-03-26 08:45;7,15
2018-03-26 09:00;10,2
2018-03-26 09:15;14,95
2018-03-26 09:30;20,15
2018-03-26 09:45;24,35
2018-03-26 10:00;23,8
2018-03-26 10:15;25
2018-03-26 10:30;27,2
2018-03-26 10:45;28,3
2018-03-26 11:00;29,95
2018-03-26 11:15;29,4
2018-03-26 11:30;35,7
2018-03-26 11:45;39,15
2018-03-26 12:00;37,85
2018-03-26 12:15;39,75
2018-03-26 12:30;43,45
2018-03-26 12:45;47,05
2018-03-26 13:00;40,55
2018-03-26 13:15;37,75
2018-03-26 13:30;36,9
2018-03-26 13:45;39,3
2018-03-26 14:00;38,65
2018-03-26 14:15;38,15
2018-03-26 14:30;35,9
2018-03-26 14:45;36,5
2018-03-26 15:00;35,6
2018-03-26 15:15;35,15
2018-03-26 15:30;36,3
2018-03-26 15:45;36,85
2018-03-26 16:00;34,4
2018-03-26 16:15;32,5
2018-03-26 16:30;31,2
2018-03-26 16:45;30,5
2018-03-26 17:00;28,3
2018-03-26 17:15;27,05
2018-03-26 17:30;26,65
2018-03-26 17:45;24,85
2018-03-26 18:00;24,3
2018-03-26 18:15;22,65
2018-03-26 18:30;21,3
2018-03-26 18:45;20,65
2018-03-26 19:00;20,15
2018-03-26 19:15;19,9
2018-03-26 19:30;17,7
2018-03-26 19:45;17,45
2018-03-26 20:00;14,15
2018-03-26 20:15;13,5
2018-03-26 20:30;14,6
2018-03-26 20:45;12,1
2018-03-26 21:00;11,8
2018-03-26 21:15;16,75
2018-03-26 21:30;15,15
2018-03-26 21:45;14,45
2018-03-26 22:00;12,45
2018-03-26 22:15;11,15
2018-03-26 22:30;11,65
2018-03-26 22:45;15,75
2018-03-26 23:00;17,6
2018-03-26 23:15;17,75
2018-03-26 23:30;17,15
2018-03-26 23:45;14,3
2018-03-27 00:00;4,4
2018-03-27 00:15;2,15
2018-03-27 00:30;2,3
2018-03-27 00:45;4
2018-03-27 01:00;2,45
2018-03-27 01:15;4,65
2018-03-27 01:30;4
2018-03-27 01:45;1,5
2018-03-27 02:00;1,7
2018-03-27 02:15;0,9
2018-03-27 02:30;1,1
2018-03-27 02:45;0,9
2018-03-27 03:00;2,5
2018-03-27 03:15;1,4
2018-03-27 03:30;2,4
2018-03-27 03:45;3,2
2018-03-27 04:00;3,55
2018-03-27 04:15;1,8
2018-03-27 04:30;0,25
2018-03-27 04:45;0,25
2018-03-27 05:00;0,85
2018-03-27 05:15;0,4
2018-03-27 05:30;0,1
2018-03-27 05:45;0
2018-03-27 06:00;0
2018-03-27 06:15;0
2018-03-27 06:30;0
2018-03-27 06:45;0
2018-03-27 07:00;0
2018-03-27 07:15;0
2018-03-27 07:30;27
2018-03-27 07:45;5,6
2018-03-27 08:00;6,5
2018-03-27 08:15;5,6
2018-03-27 08:30;1
2018-03-27 08:45;12,05
2018-03-27 09:00;11,35
2018-03-27 09:15;8,2
2018-03-27 09:30;9,75
2018-03-27 09:45;13,55
2018-03-27 10:00;11,2
2018-03-27 10:15;16,95
2018-03-27 10:30;17,4
2018-03-27 10:45;25,95
2018-03-27 11:00;20,05
2018-03-27 11:15;22,3
2018-03-27 11:30;21,05
2018-03-27 11:45;22,05
2018-03-27 12:00;23,1
2018-03-27 12:15;24,6
2018-03-27 12:30;25,25
2018-03-27 12:45;25,6
2018-03-27 13:00;25,75
2018-03-27 13:15;25,6
2018-03-27 13:30;26,6
2018-03-27 13:45;27,8
2018-03-27 14:00;26,15
2018-03-27 14:15;24,8
2018-03-27 14:30;28,75
2018-03-27 14:45;29,8
2018-03-27 15:00;27,5
2018-03-27 15:15;27,6
2018-03-27 15:30;29,2
2018-03-27 15:45;26,85
2018-03-27 16:00;24,5
2018-03-27 16:15;26,4
2018-03-27 16:30;25,75
2018-03-27 16:45;25,75
2018-03-27 17:00;26,8
2018-03-27 17:15;25,65
2018-03-27 17:30;25,55
2018-03-27 17:45;22,1
2018-03-27 18:00;21,5
2018-03-27 18:15;21,6
2018-03-27 18:30;20
2018-03-27 18:45;20,9
2018-03-27 19:00;18,65
2018-03-27 19:15;16,6
2018-03-27 19:30;16,25
2018-03-27 19:45;19,25
2018-03-27 20:00;19,85
2018-03-27 20:15;17,05
2018-03-27 20:30;11,75
2018-03-27 20:45;10,35
2018-03-27 21:00;6,65
2018-03-27 21:15;9,75
2018-03-27 21:30;8,4
2018-03-27 21:45;8,75
2018-03-27 22:00;6,9
2018-03-27 22:15;8,25
2018-03-27 22:30;8,5
2018-03-27 22:45;9,2
2018-03-27 23:00;10,6
2018-03-27 23:15;9,5
2018-03-27 23:30;11,65
2018-03-27 23:45;11,3
2018-03-28 00:00;7,9
2018-03-28 00:15;5,65
2018-03-28 00:30;5,4
2018-03-28 00:45;5,35
2018-03-28 01:00;5,85
2018-03-28 01:15;5,6
2018-03-28 01:30;5,6
2018-03-28 01:45;2,35
2018-03-28 02:00;2,45
2018-03-28 02:15;2,2
2018-03-28 02:30;2,75
2018-03-28 02:45;4,4
2018-03-28 03:00;2,5
2018-03-28 03:15;2,75
2018-03-28 03:30;4,25
2018-03-28 03:45;3,1
2018-03-28 04:00;4,75
2018-03-28 04:15;7,15
2018-03-28 04:30;6,2
2018-03-28 04:45;5,9
2018-03-28 05:00;6,65
2018-03-28 05:15;6
2018-03-28 05:30;6,6
2018-03-28 05:45;7,1
2018-03-28 06:00;4,15
2018-03-28 06:15;4,8
2018-03-28 06:30;4,75
2018-03-28 06:45;3,6
2018-03-28 07:00;1,95
2018-03-28 07:15;2,75
2018-03-28 07:30;31,2
2018-03-28 07:45;6,25
2018-03-28 08:00;11,9
2018-03-28 08:15;6,1
2018-03-28 08:30;4,6
2018-03-28 08:45;14,7
2018-03-28 09:00;15,85
2018-03-28 09:15;24,45
2018-03-28 09:30;22,5
2018-03-28 09:45;31,15
2018-03-28 10:00;22,85
2018-03-28 10:15;28,1
2018-03-28 10:30;25,5
2018-03-28 10:45;31,8
2018-03-28 11:00;29,05
2018-03-28 11:15;29,15
2018-03-28 11:30;28,2
2018-03-28 11:45;28,3
2018-03-28 12:00;28,4
2018-03-28 12:15;31,3
2018-03-28 12:30;30,25
2018-03-28 12:45;30,35
2018-03-28 13:00;31,45
2018-03-28 13:15;29,8
2018-03-28 13:30;30,75
2018-03-28 13:45;28,75
2018-03-28 14:00;27,7
2018-03-28 14:15;30,65
2018-03-28 14:30;31,95
2018-03-28 14:45;29,4
2018-03-28 15:00;29,35
2018-03-28 15:15;24,7
2018-03-28 15:30;27,45
2018-03-28 15:45;27,9
2018-03-28 16:00;26,15
2018-03-28 16:15;24,2
2018-03-28 16:30;22
2018-03-28 16:45;23,3
2018-03-28 17:00;24
2018-03-28 17:15;20
2018-03-28 17:30;21,85
2018-03-28 17:45;21,1
2018-03-28 18:00;18,9
2018-03-28 18:15;17,4
2018-03-28 18:30;15,65
2018-03-28 18:45;14,9
2018-03-28 19:00;16
2018-03-28 19:15;13,4
2018-03-28 19:30;12,4
2018-03-28 19:45;14,4
2018-03-28 20:00;10,65
2018-03-28 20:15;7,2
2018-03-28 20:30;6,95
2018-03-28 20:45;9,8
2018-03-28 21:00;12,7
2018-03-28 21:15;15,3
2018-03-28 21:30;14,8
2018-03-28 21:45;15,5
2018-03-28 22:00;13,1
2018-03-28 22:15;12,1
2018-03-28 22:30;12,05
2018-03-28 22:45;7,15
2018-03-28 23:00;6,7
2018-03-28 23:15;6,4
2018-03-28 23:30;6,85
2018-03-28 23:45;7,5
2018-03-29 00:00;6,55
2018-03-29 00:15;7,3
2018-03-29 00:30;7,2
2018-03-29 00:45;7,1
2018-03-29 01:00;7,7
2018-03-29 01:15;6,8
2018-03-29 01:30;5,4
2018-03-29 01:45;5,8
2018-03-29 02:00;6,7
2018-03-29 02:15;6,4
2018-03-29 02:30;6,2
2018-03-29 02:45;7,7
2018-03-29 03:00;7,9
2018-03-29 03:15;8,75
2018-03-29 03:30;9,15
2018-03-29 03:45;8,25
2018-03-29 04:00;9,65
2018-03-29 04:15;8,9
2018-03-29 04:30;9,3
2018-03-29 04:45;10,7
2018-03-29 05:00;8,6
2018-03-29 05:15;9,3
2018-03-29 05:30;8,7
2018-03-29 05:45;7,75
2018-03-29 06:00;6,95
2018-03-29 06:15;7,65
2018-03-29 06:30;3,85
2018-03-29 06:45;2,55
2018-03-29 07:00;2,75
2018-03-29 07:15;2,9
2018-03-29 07:30;28
2018-03-29 07:45;13,15
2018-03-29 08:00;14,55
2018-03-29 08:15;9,75
2018-03-29 08:30;17,85
2018-03-29 08:45;13,9
2018-03-29 09:00;11,3
2018-03-29 09:15;20
2018-03-29 09:30;15,25
2018-03-29 09:45;20,25
2018-03-29 10:00;22
2018-03-29 10:15;25,6
2018-03-29 10:30;26,95
2018-03-29 10:45;25,1
2018-03-29 11:00;27,05
2018-03-29 11:15;23,55
2018-03-29 11:30;21,25
2018-03-29 11:45;24,7
2018-03-29 12:00;22,3
2018-03-29 12:15;21,75
2018-03-29 12:30;23,7
2018-03-29 12:45;24
2018-03-29 13:00;25,5
2018-03-29 13:15;26,45
2018-03-29 13:30;23,3
2018-03-29 13:45;25
2018-03-29 14:00;24
2018-03-29 14:15;30,65
2018-03-29 14:30;30,6
2018-03-29 14:45;31,15
2018-03-29 15:00;32,1
2018-03-29 15:15;29,6
2018-03-29 15:30;27,55
2018-03-29 15:45;28,4
2018-03-29 16:00;27,45
2018-03-29 16:15;26,5
2018-03-29 16:30;26,2
2018-03-29 16:45;24,5
2018-03-29 17:00;24,55
2018-03-29 17:15;23
2018-03-29 17:30;17,85
2018-03-29 17:45;18,25
2018-03-29 18:00;15,55
2018-03-29 18:15;12,35
2018-03-29 18:30;15,45
2018-03-29 18:45;14,55
2018-03-29 19:00;14,55
2018-03-29 19:15;17,1
2018-03-29 19:30;12,95
2018-03-29 19:45;13,05
2018-03-29 20:00;12
2018-03-29 20:15;6,85
2018-03-29 20:30;8,25
2018-03-29 20:45;7,3
2018-03-29 21:00;7,95
2018-03-29 21:15;9,45
2018-03-29 21:30;7,9
2018-03-29 21:45;6,9
2018-03-29 22:00;8,25
2018-03-29 22:15;9,3
2018-03-29 22:30;10,15
2018-03-29 22:45;10,1
2018-03-29 23:00;11
2018-03-29 23:15;9,2
2018-03-29 23:30;6,6
2018-03-29 23:45;9,1
2018-03-30 00:00;8,1
2018-03-30 00:15;4,45
2018-03-30 00:30;2,4
2018-03-30 00:45;1,35
2018-03-30 01:00;2,1
2018-03-30 01:15;3,15
2018-03-30 01:30;3,85
2018-03-30 01:45;5,1
2018-03-30 02:00;5,15
2018-03-30 02:15;4,9
2018-03-30 02:30;3,95
2018-03-30 02:45;2,3
2018-03-30 03:00;3,15
2018-03-30 03:15;2,95
2018-03-30 03:30;3,2
2018-03-30 03:45;3,95
2018-03-30 04:00;4,55
2018-03-30 04:15;3,8
2018-03-30 04:30;3,8
2018-03-30 04:45;3,3
2018-03-30 05:00;3,5
2018-03-30 05:15;3,1
2018-03-30 05:30;2,45
2018-03-30 05:45;3,8
2018-03-30 06:00;2,9
2018-03-30 06:15;1,35
2018-03-30 06:30;1,3
2018-03-30 06:45;0,35
2018-03-30 07:00;0,1
2018-03-30 07:15;0,05
2018-03-30 07:30;18,8
2018-03-30 07:45;4,95
2018-03-30 08:00;5
2018-03-30 08:15;9,5
2018-03-30 08:30;8
2018-03-30 08:45;8,8
2018-03-30 09:00;12,05
2018-03-30 09:15;9,45
2018-03-30 09:30;9
2018-03-30 09:45;26,55
2018-03-30 10:00;25,7
2018-03-30 10:15;23,05
2018-03-30 10:30;19,75
2018-03-30 10:45;29,75
2018-03-30 11:00;26
2018-03-30 11:15;21
2018-03-30 11:30;22,4
2018-03-30 11:45;21,4
2018-03-30 12:00;20,9
2018-03-30 12:15;22,05
2018-03-30 12:30;29,15
2018-03-30 12:45;28,45
2018-03-30 13:00;26,7
2018-03-30 13:15;24,35
2018-03-30 13:30;25,45
2018-03-30 13:45;25,6
2018-03-30 14:00;25,5
2018-03-30 14:15;23,2
2018-03-30 14:30;22,55
2018-03-30 14:45;22,85
2018-03-30 15:00;19,8
2018-03-30 15:15;18,95
2018-03-30 15:30;19,1
2018-03-30 15:45;14,05
2018-03-30 16:00;14,5
2018-03-30 16:15;14,8
2018-03-30 16:30;15
2018-03-30 16:45;14,8
2018-03-30 17:00;14,4
2018-03-30 17:15;9,25
2018-03-30 17:30;5,7
2018-03-30 17:45;5,8
2018-03-30 18:00;5,05
2018-03-30 18:15;6,55
2018-03-30 18:30;8,15
2018-03-30 18:45;15,35
2018-03-30 19:00;15,5
2018-03-30 19:15;14,75
2018-03-30 19:30;13,4
2018-03-30 19:45;14,2
2018-03-30 20:00;12,8
2018-03-30 20:15;8,1
2018-03-30 20:30;8,4
2018-03-30 20:45;6,95
2018-03-30 21:00;6,95
2018-03-30 21:15;10,45
2018-03-30 21:30;9,45
2018-03-30 21:45;8,05
2018-03-30 22:00;10,05
2018-03-30 22:15;8,65
2018-03-30 22:30;8,35
2018-03-30 22:45;6,7
2018-03-30 23:00;7,65
2018-03-30 23:15;6,65
2018-03-30 23:30;9,45
2018-03-30 23:45;3,35
2018-03-31 00:00;1,05
2018-03-31 00:15;1,85
2018-03-31 00:30;0,4
2018-03-31 00:45;0,75
2018-03-31 01:00;1,6
2018-03-31 01:15;1,9
2018-03-31 01:30;1,65
2018-03-31 01:45;2,5
2018-03-31 02:00;3,3
2018-03-31 02:15;2,8
2018-03-31 02:30;2,3
2018-03-31 02:45;3,65
2018-03-31 03:00;2,85
2018-03-31 03:15;1,1
2018-03-31 03:30;1,1
2018-03-31 03:45;0,6
2018-03-31 04:00;0,95
2018-03-31 04:15;1,35
2018-03-31 04:30;0,6
2018-03-31 04:45;0,9
2018-03-31 05:00;1,25
2018-03-31 05:15;0,75
2018-03-31 05:30;1,3
2018-03-31 05:45;0,85
2018-03-31 06:00;0,3
2018-03-31 06:15;0,15
2018-03-31 06:30;0
2018-03-31 06:45;0
2018-03-31 07:00;0
2018-03-31 07:15;0
2018-03-31 07:30;0
2018-03-31 07:45;0
2018-03-31 08:00;2,2
2018-03-31 08:15;4,85
2018-03-31 08:30;3,45
2018-03-31 08:45;2,95
2018-03-31 09:00;1,35
2018-03-31 09:15;0,25
2018-03-31 09:30;0
2018-03-31 09:45;0,45
2018-03-31 10:00;0,8
2018-03-31 10:15;0,15
2018-03-31 10:30;0
2018-03-31 10:45;0,05
2018-03-31 11:00;0,3
2018-03-31 11:15;0
2018-03-31 11:30;0
2018-03-31 11:45;0
2018-03-31 12:00;0
2018-03-31 12:15;0
2018-03-31 12:30;0
2018-03-31 12:45;0
2018-03-31 13:00;0
2018-03-31 13:15;0
2018-03-31 13:30;0,05
2018-03-31 13:45;0
2018-03-31 14:00;0
2018-03-31 14:15;0
2018-03-31 14:30;0,05
2018-03-31 14:45;0
2018-03-31 15:00;0
2018-03-31 15:15;0
2018-03-31 15:30;0
2018-03-31 15:45;0,15
2018-03-31 16:00;0,25
2018-03-31 16:15;0
2018-03-31 16:30;0,3
2018-03-31 16:45;1,15
2018-03-31 17:00;1,7
2018-03-31 17:15;0,95
2018-03-31 17:30;0,05
2018-03-31 17:45;0,05
2018-03-31 18:00;0
2018-03-31 18:15;0
2018-03-31 18:30;0,3
2018-03-31 18:45;0,5
2018-03-31 19:00;2,15
2018-03-31 19:15;2,15
2018-03-31 19:30;2,1
2018-03-31 19:45;2,3
2018-03-31 20:00;2,25
2018-03-31 20:15;0,85
2018-03-31 20:30;0,7
2018-03-31 20:45;1,15
2018-03-31 21:00;1,7
2018-03-31 21:15;1,55
2018-03-31 21:30;1,65
2018-03-31 21:45;2,25
2018-03-31 22:00;1,9
2018-03-31 22:15;2,65
2018-03-31 22:30;4,35
2018-03-31 22:45;1,15
2018-03-31 23:00;0,2
2018-03-31 23:15;0,1
2018-03-31 23:30;0,35
2018-03-31 23:45;0
2018-04-01 00:00;0
2018-04-01 00:15;0
2018-04-01 00:30;0
2018-04-01 00:45;0
2018-04-01 01:00;0
2018-04-01 01:15;0,05
2018-04-01 01:30;0
2018-04-01 01:45;0
2018-04-01 02:00;0
2018-04-01 02:15;0
2018-04-01 02:30;0,1
2018-04-01 02:45;0
2018-04-01 03:00;0,1
2018-04-01 03:15;0,75
2018-04-01 03:30;1,15
2018-04-01 03:45;1,5
2018-04-01 04:00;1,05
2018-04-01 04:15;1,85
2018-04-01 04:30;1,05
2018-04-01 04:45;1,65
2018-04-01 05:00;2,6
2018-04-01 05:15;0,9
2018-04-01 05:30;1,6
2018-04-01 05:45;2,1
2018-04-01 06:00;0,35
2018-04-01 06:15;0,1
2018-04-01 06:30;0
2018-04-01 06:45;0,05
2018-04-01 07:00;0
2018-04-01 07:15;0
2018-04-01 07:30;0
2018-04-01 07:45;0
2018-04-01 08:00;0
2018-04-01 08:15;0
2018-04-01 08:30;0
2018-04-01 08:45;0
2018-04-01 09:00;0
2018-04-01 09:15;0
2018-04-01 09:30;0
2018-04-01 09:45;0
2018-04-01 10:00;0
2018-04-01 10:15;0
2018-04-01 10:30;0
2018-04-01 10:45;0
2018-04-01 11:00;0
2018-04-01 11:15;0
2018-04-01 11:30;0
2018-04-01 11:45;0
2018-04-01 12:00;0
2018-04-01 12:15;0
2018-04-01 12:30;0
2018-04-01 12:45;0
2018-04-01 13:00;0
2018-04-01 13:15;0
2018-04-01 13:30;0
2018-04-01 13:45;0
2018-04-01 14:00;0
2018-04-01 14:15;0
2018-04-01 14:30;0
2018-04-01 14:45;0
2018-04-01 15:00;0
2018-04-01 15:15;0
2018-04-01 15:30;0
2018-04-01 15:45;0
2018-04-01 16:00;0,05
2018-04-01 16:15;0
2018-04-01 16:30;0
2018-04-01 16:45;0,1
2018-04-01 17:00;0,05
2018-04-01 17:15;0,05
2018-04-01 17:30;0
2018-04-01 17:45;0
2018-04-01 18:00;0
2018-04-01 18:15;0
2018-04-01 18:30;0
2018-04-01 18:45;0
2018-04-01 19:00;2,05
2018-04-01 19:15;3,85
2018-04-01 19:30;3,25
2018-04-01 19:45;2,55
2018-04-01 20:00;4,75
2018-04-01 20:15;0,7
2018-04-01 20:30;0,3
2018-04-01 20:45;0,8
2018-04-01 21:00;0,15
2018-04-01 21:15;0,85
2018-04-01 21:30;1,15
2018-04-01 21:45;0,4
2018-04-01 22:00;1,2
2018-04-01 22:15;0,25
2018-04-01 22:30;0
2018-04-01 22:45;0
2018-04-01 23:00;0
2018-04-01 23:15;0
2018-04-01 23:30;0
2018-04-01 23:45;0,15

